Погода в Дудоре

Россия / Владимирская область     55°31′57″N   40°54′20″E
темп.,
°C
ветер,
м/с
пор.,
м/с
влажн.,
%
обл.,
%
осадки,
мм/ч
давл.,
гПа
погр.,
м
1 августа, вс
вс100:00+16зюз256667 0.0 100992
03:00+15з247419 0.0 101082
06:00+16зюз2475100 0.0 1011116
09:00+22зюз3551100 0.0 1012562
12:00+26зюз3436100 0.0 10111534
15:00+28зюз3536100 0.0 10111835
18:00+27ю354173 0.0 1010830
21:00+19ююв017171 0.1 101016
2 августа, пн
пн200:00+17ю118010 0.3 101116
03:00+16ююз22807 0.3 101026
06:00+18юз2377100 0.0 101081
09:00+25ююз3559100 0.2 1011424
12:00+30ююз393899 0.0 10091752
15:00+29зюз494498 0.2 10071493
18:00+24ююв39646 0.6 1006210
21:00+20юв311865 1.1 1006213
3 августа, вт
вт300:00+19ююв31185100 0.1 1004197
03:00+20юз4138396 0.1 1005643
06:00+19ююз5128454 0.1 1005595
09:00+23юз476499 0.1 1005696
12:00+26юз585422 0.0 10061449
15:00+23зюз696022 0.2 10071175
18:00+22з57686 0.0 1008869
21:00+17зсз39865 0.0 1010462
4 августа, ср
ср400:00+14зсз259737 0.0 1011119
03:00+13зюз22965 0.0 101231
06:00+15з24905 0.0 1013139
09:00+21сз355564 0.0 1014772
12:00+24сз443736 0.0 10142332
15:00+22зсз3646100 0.0 1015468
18:00+22ссз1155100 0.0 101545
21:00+19с116499 0.0 101619
5 августа, чт
чт500:00+16ссв2278100 0.0 101716
03:00+14ссв22755 0.1 101829
06:00+14ссв237959 0.1 101993
09:00+21всв234248 0.1 1019695
12:00+25в22376 0.0 10181819
15:00+25св1138100 0.0 10171888
18:00+23юв1255100 0.0 1017102
21:00+19вюв2258100 0.0 101739